Home > Weather > Barrow > Past weeks

Flag for USA Past Weather in Barrow, Alaska, USA — Yesterday and Last 2 Weeks

Now
32 °F

Low clouds.


Feels Like: 21 °F
Forecast: 32 / 35 °F
Wind: 16 mph from East

Location: Post Rogers Memorial Airport

Current Time: May 27, 2016 at 12:42:39 AM

Latest Report: May 26, 2016 at 11:53 PM


Visibility: 10 mi

Pressure: 30.32 "Hg

Humidity: 88%

Dew Point: 29 °F

Location of BarrowLocation

Past Weather in Barrow — Graph

°F

Barrow Temperature Yesterday

Maximum temperature yesterday: 35 °F (at 1:53 PM)
Minimum temperature yesterday: 31 °F (at 5:56 AM)
Average temperature yesterday: 33 °F

High & Low Weather Summary for the Past Weeks

 TemperatureHumidityPressure
High42 °F (May 13, 1:53 PM)100% (May 22, 11:53 AM)30.47 "Hg (May 22, 11:53 AM)
Low21 °F (May 17, 4:53 AM)73% (May 14, 6:53 PM)29.74 "Hg (May 21, 10:04 PM)
Average31 °F89%30.19 "Hg
* Reported May 11 10:53 PM — May 26 10:53 PM, Barrow, Weather by CustomWeather, © 2016

Note: Actual official high and low records may vary slightly from our data, if they occured in-between our weather recording intervals... More about our weather records

Advertising

Barrow Weather History for the Previous 24 Hours

Scroll right to see more
 ConditionsComfort  
Time TempWeatherWind HumidityBarometerVisibility
10:53 PM
Thu, May 26
32 °FLow clouds.17 mph88%30.31 "Hg10 mi
9:53 PM33 °FLow clouds.18 mph88%30.30 "Hg10 mi
8:53 PM33 °FLow clouds.16 mph92%30.30 "Hg10 mi
7:53 PM34 °FLow clouds.17 mph88%30.30 "Hg10 mi
6:53 PM34 °FLow clouds.20 mph88%30.29 "Hg10 mi
5:53 PM35 °FLow clouds.16 mph85%30.29 "Hg10 mi
4:53 PM35 °FLow clouds.17 mph85%30.30 "Hg10 mi
3:53 PM35 °FLow clouds.17 mph85%30.30 "Hg10 mi
2:53 PM35 °FLow clouds.16 mph88%30.29 "Hg10 mi
1:53 PM35 °FLow clouds.17 mph88%30.29 "Hg10 mi
1:04 PM34 °FLow clouds.15 mph88%30.29 "Hg10 mi
12:53 PM34 °FLow clouds.14 mph88%30.29 "Hg10 mi
11:53 AM33 °FLow clouds.14 mph88%30.29 "Hg10 mi
10:53 AM33 °FLow clouds.15 mph92%30.29 "Hg10 mi
9:53 AM33 °FLow clouds.14 mph92%30.29 "Hg9 mi
8:53 AM33 °FLow clouds.10 mph92%30.28 "Hg10 mi
8:04 AM32 °FIce fog.12 mph92%30.27 "Hg1 mi
7:53 AM32 °FIce fog.12 mph92%30.27 "Hg2 mi
6:53 AM32 °FLow clouds.8 mph92%30.28 "Hg10 mi
5:56 AM31 °FIce fog.10 mph92%30.27 "Hg2 mi
4:53 AM32 °FLow clouds.7 mph88%30.27 "Hg10 mi
3:53 AM33 °FLow clouds.5 mph88%30.27 "Hg10 mi
2:53 AM33 °FLow clouds.6 mph88%30.26 "Hg10 mi
1:53 AM33 °FLow clouds.7 mph88%30.25 "Hg10 mi
12:53 AM33 °FOvercast.7 mph88%30.24 "Hg10 mi
Weather by CustomWeather, © 2016

See weather overviewHow to use our weather pages